TIME,DELAY(SENSOR),PRES,OXYGEN,RAWTEMP,T(OPTODE),TCPHASE,FLUOR,BETA(BETA700),BETA(BETA412),BETA(BETA440),CDOM,C(CSC),ED(ED412.40),ED(ED444.00),ED(ED489.70),ED(ED554.30),LU(LU411.80),LU(LU443.40),LU(LU489.60),LU(LU554.10),COMP,TILTX,TILTY,CHECK
1351568122,5807,821.7199707031250000,42.8274612426757800,656.7514038085938000,4.7348628044128420,54.5400505065918000,53,100,89,79,81,15163,2147754889,2147419419,2148005961,2147873572,2147637257,2147065444,2148257179,2147196260,3471,4,13,35281
1351571718,5809,891.6099853515625000,44.7399215698242200,664.4494018554688000,4.4813799858093260,54.3491287231445300,53,100,91,79,82,15165,2147754688,2147420845,2148008146,2147874084,2147639378,2147059739,2148258496,2147196790,2443,4,13,19697
1351575318,5808,905.8699951171875000,44.7912597656250000,665.2930297851562000,4.4535617828369140,54.3505706787109400,51,101,86,79,81,15165,2147759643,2147420918,2148009856,2147873225,2147643227,2147057728,2148261705,2147195008,346,5,13,35638
1351578918,5805,952.1900024414062000,44.8779602050781250,665.7374267578125000,4.4389061927795410,54.3420906066894500,53,100,89,79,81,15039,2147753142,2147420854,2148011328,2147874861,2147638866,2147061412,2148258532,2147199881,177,4,13,27562
1351582518,5811,957.7899780273438000,44.3090400695800800,664.6032104492188000,4.4763088226318360,54.4142990112304700,52,99,86,80,81,15040,2147753810,2147420379,2148007515,2147875821,2147640329,2147057280,2148261065,2147198034,244,4,13,2105
1351586118,5807,949.5499877929688000,44.6111106872558600,665.9865722656250000,4.4306850433349610,54.3810310363769500,52,98,89,80,82,15037,2147760164,2147420260,2148010861,2147873846,2147639725,2147069138,2148260178,2147198409,299,5,13,6947
1351589718,5804,971.5900268554688000,45.3978385925293000,668.1370239257812000,4.3597202301025390,54.2942085266113300,53,207,86,79,81,15036,2147758482,2147420928,2148009444,2147872795,2147641700,2147057426,2148262893,2147198912,3468,4,13,54252
1351593318,5808,969.7999877929688000,45.9660186767578100,669.2706909179688000,4.3222870826721190,54.2258796691894500,53,97,86,78,81,15038,2147757677,2147421979,2148010048,2147874624,2147641472,2147058852,2148257645,2147196900,395,4,13,7723
1351596918,5810,960.5599975585938000,46.6479682922363300,670.5191040039062000,4.2810478210449220,54.1476402282714840,53,100,89,79,81,15033,2147758857,2147419858,2148009417,2147873344,2147641609,2147064877,2148267584,2147197924,234,5,13,35552
1351600518,5805,963.5000000000000000,46.9607505798339840,670.9871215820312000,4.2655849456787110,54.1086692810058600,52,100,85,79,81,15032,2147758180,2147420361,2148008539,2147873371,2147643922,2147058724,2148263177,2147195803,163,4,13,28738
1351604118,5810,991.3200073242188000,47.7684898376464840,673.4357299804688000,4.1846351623535160,54.0248298645019500,53,99,87,78,82,15034,2147757924,2147420818,2148008073,2147873417,2147643922,2147057627,2148260873,2147195638,3432,4,13,40714
1351607718,5809,987.2800292968750000,47.9836196899414060,674.0474243164062000,4.1644058227539060,53.9996681213378900,52,99,86,80,82,15032,2147756105,2147421723,2148009161,2147876278,2147644205,2147058221,2148259757,2147196992,600,4,13,50581
1351611318,5810,985.5499877929688000,49.1324996948242200,675.8079833984375000,4.1061458587646480,53.8644981384277340,52,101,85,79,80,15033,2147757229,2147418770,2148008923,2147872896,2147643401,2147054765,2148263076,2147196224,430,4,13,24967
1351614918,5810,997.7500000000000000,49.2852897644043000,675.1694946289062000,4.1272768974304200,53.8340492248535160,53,99,85,79,81,15023,2147756854,2147420891,2148008758,2147874733,2147641938,2147059090,2148263140,2147197659,12,4,13,20835
1351618518,5807,1005.0000000000000000,47.8853187561035160,673.6063232421875000,4.1789932250976560,54.0098304748535160,53,99,87,79,81,15028,2147758546,2147419730,2148006665,2147873042,2147639963,2147053202,2148256420,2147198034,3532,4,13,15898
1351622118,5809,1007.9299926757812000,47.8665695190429700,672.9871215820312000,4.1994709968566895,54.0019683837890600,53,99,86,79,81,15024,2147757440,2147422034,2148008493,2147873472,2147641225,2147059392,2148260845,2147198253,3511,4,13,22174
1351625718,5809,1000.4899902343750000,47.5628890991210940,673.2280883789062000,4.1915020942687990,54.0497016906738300,53,100,88,79,81,15025,2147760438,2147418048,2148011236,2147876873,2147642660,2147058907,2148258377,2147196708,3403,4,13,15642
1351629318,5810,1002.9899902343750000,47.1813507080078100,673.1240234375000000,4.1949458122253420,54.0989189147949200,53,102,86,79,81,15030,2147758738,2147420260,2148009910,2147875693,2147642715,2147052973,2148259382,2147197430,107,5,13,11004
1351632918,5809,1003.0599975585938000,47.7899398803710940,673.3366699218750000,4.1879119873046875,54.0220108032226560,52,100,93,80,81,15030,2147758710,2147420480,2148010852,2147875154,2147643072,2147057965,2148259273,2147196918,66,5,13,46279
1351636518,5811,1003.7700195312500000,47.5223007202148440,673.0153808593750000,4.1985340118408200,54.0537681579589840,52,97,89,80,80,15032,2147758189,2147420297,2148010267,2147872731,2147640804,2147057252,2148262308,2147197760,245,4,13,62460
1351640118,5810,1008.0900268554688000,47.1515502929687500,673.1016235351562000,4.1956839561462400,54.1100807189941400,53,98,85,80,81,15024,2147759853,2147422070,2148007835,2147874441,2147642294,2147056137,2148264457,2147194441,3575,4,13,46673
1351643718,5807,998.7299804687500000,47.6632308959960940,673.8452148437500000,4.1710948944091800,54.0403099060058600,53,99,88,79,81,15028,2147756909,2147419958,2148011977,2147874002,2147642121,2147056886,2148262171,2147196333,3106,4,13,37976
1351647318,5808,1002.5999755859375000,48.2996292114257800,674.9459838867188000,4.1346721649169920,53.9673805236816400,52,106,91,79,81,15027,2147757622,2147420608,2148010514,2147875712,2147641115,2147058870,2148260022,2147197586,173,4,13,47333
1351650918,5811,1011.2299804687500000,48.2015991210937500,674.8931884765625000,4.1364188194274900,53.9824295043945300,53,101,86,78,82,15026,2147757403,2147420489,2148010230,2147873334,2147643785,2147057709,2148258331,2147198089,680,4,13,30177
1351654518,5810,998.0700073242188000,47.7962913513183600,674.5501708984375000,4.1477718353271480,54.0320587158203100,53,98,89,79,81,15024,2147759414,2147420635,2148012489,2147874395,2147642075,2147062601,2148262345,2147196498,3592,4,13,63357
1351658118,5808,1006.9600219726562000,48.8151206970214840,675.3978271484375000,4.1197218894958500,53.9026298522949200,52,98,86,78,80,15024,2147756507,2147420845,2148012708,2147873371,2147644288,2147056246,2148268342,2147193627,503,4,13,25584
1351661718,5808,1012.4500122070312000,47.9669494628906250,674.1541137695312000,4.1608748435974120,54.0076484680175800,53,99,93,80,82,15022,2147759277,2147420416,2148011355,2147876278,2147642962,2147057956,2148262619,2147193152,3542,4,13,47257
1351665318,5809,1012.1300048828125000,47.9976310729980500,673.8002929687500000,4.1725788116455080,53.9973983764648440,53,98,89,78,81,15018,2147758272,2147419337,2148009810,2147870482,2147644059,2147060873,2148260187,2147197924,3477,4,13,7983
1351668918,5810,1019.6599731445312000,47.5915489196777340,672.5037841796875000,4.2154521942138670,54.0400581359863300,52,98,86,79,81,15020,2147757677,2147420882,2148010925,2147872841,2147642806,2147059520,2148257472,2147197339,3282,4,13,65103
1351672518,5809,1011.0999755859375000,46.9970588684082000,672.8394165039062000,4.2043571472167970,54.1267890930175800,53,98,89,79,82,15014,2147759762,2147421522,2148008484,2147877156,2147644854,2147065024,2148259968,2147197586,3430,4,13,50511
1351676118,5807,1014.4099731445312000,47.2495689392089840,673.6085205078125000,4.1789212226867680,54.1024208068847660,52,99,86,79,82,15021,2147757677,2147419885,2148010139,2147872713,2147643062,2147059026,2148263305,2147200265,289,4,13,19384
1351679718,5807,996.3800048828125000,47.6896896362304700,674.2274169921875000,4.1584467887878420,54.0482406616210940,52,100,87,79,81,15017,2147759506,2147423442,2148006692,2147873700,2147644352,2147057883,2148262025,2147198034,3541,4,13,51563
1351683318,5808,1000.8099975585938000,48.6320304870605500,676.6218261718750000,4.0792059898376465,53.9398384094238300,52,98,87,79,81,15009,2147761984,2147424237,2148009892,2147875574,2147645513,2147053869,2148264749,2147195181,3416,4,13,62207
1351686918,5811,1000.2899780273438000,48.7963104248046900,676.5034790039062000,4.0831198692321780,53.9179382324218750,52,103,86,78,80,15020,2147761051,2147421668,2148011410,2147876260,2147644086,2147056594,2148257408,2147197586,248,4,13,37809
1351690518,5808,1002.1500244140625000,48.8801994323730500,676.3673706054688000,4.0876269340515140,53.9077606201171900,52,100,85,79,81,15017,2147760301,2147421714,2148007021,2147874249,2147642276,2147056548,2148261979,2147197147,156,4,13,12365
1351694118,5811,1006.5100097656250000,48.3264617919921900,675.8699951171875000,4.1040940284729000,53.9772300720214840,53,98,87,79,81,15016,2147758720,2147423780,2148011291,2147876416,2147642953,2147055305,2148261010,2147194441,3139,4,13,55170
1351697718,5808,1004.2399902343750000,47.9735183715820300,675.4255981445312000,4.1188030242919920,54.0219192504882800,51,97,89,80,81,15017,2147756105,2147420882,2148011090,2147872905,2147642276,2147054948,2148260059,2147196297,388,4,13,30767
1351701318,5807,1003.1300048828125000,48.2021102905273440,675.3270263671875000,4.1220660209655760,53.9864196777343750,52,98,88,79,82,15015,2147760365,2147420827,2148005613,2147873517,2147639881,2147053467,2148260516,2147194112,3571,4,13,17254
1351704918,5807,1019.5800170898438000,48.3577003479003900,674.2512207031250000,4.1576609611511230,53.9537811279296900,52,99,88,80,81,15016,2147759286,2147422784,2148008493,2147875684,2147641801,2147061842,2148260516,2147193316,3393,4,13,14606
1351708518,5808,1025.1600341796875000,47.8479995727539060,673.1168823242188000,4.1951770782470700,54.0071182250976560,52,114,86,80,81,15015,2147759570,2147419410,2148007890,2147876516,2147645869,2147057078,2148262802,2147194797,2771,4,13,35850
1351712118,5811,1009.8099975585938000,47.0787811279296900,672.9893798828125000,4.1993961334228520,54.1127395629882800,52,101,88,79,81,15016,2147756626,2147423698,2148010761,2147874267,2147641398,2147059328,2148261366,2147198070,480,4,13,31761
1351712455,5806,1006.9500122070312000,47.1332206726074200,673.0889282226562000,4.1961059570312500,54.1109695434570300,53,100,89,79,81,15148,2147756763,2147422281,2148008557,2147874084,2147644141,2147058176,2148263588,2147199040,23,5,13,52462
